Ellensburg, WA
on Monday, January 7, 2013

Monday
Previous Day Next Day
Daily Summary
 ActualAverage (KYKM)Record (KYKM)
Temperature
Mean Temperature °F 29°F  
Max Temperature 44°F 36°F 61°F (1962)
Min Temperature 26°F 22°F -11°F (1974)
Degree Days
Heating Degree Days 30 36  
Month to date heating degree days 255  
Since 1 July heating degree days 2918  
Cooling Degree Days 0 0  
Month to date cooling degree days 0  
Year to date cooling degree days 0  
Moisture
Dew Point 24°F   
Average Humidity 76    
Maximum Humidity 86    
Minimum Humidity 58    
Precipitation
Precipitation 0.22 in 0.04 in 0.36 in (1990)
Month to date precipitation 0.30  
Year to date precipitation 0.30  
Snow
Snow 0.00 in 0.30 in 5.40 in (2005)
Month to date snowfall 1.7  
Year to date snowfall 1.7  
Since 1 July snowfall 14.7  
Snow Depth in   
Wind
Wind Speed 2 mph   
Max Wind Speed 29 mph   
Max Gust Speed 34 mph   
Visibility 3 miles   
Events Snow   

Key: T is trace of precipitation, MM is missing value
Source: NWS Daily Summary
Time(PST)TemperatureDew PointHumidity Pressure Visibility Wind DirectionWind SpeedGust SpeedPrecipitationEvents Conditions
12:03 AM 26.6°F 21.2°F 80% 30.01 in 1.2 miles Calm Calm - N/A   Haze
12:16 AM 26.6°F 21.2°F 80% 30.01 in 2.0 miles Calm Calm - N/A   Haze
12:24 AM 26.6°F 21.2°F 80% 30.00 in 3.0 miles Calm Calm - N/A   Haze
12:36 AM 26.6°F 21.2°F 80% 30.01 in 3.0 miles Calm Calm - N/A   Haze
12:53 AM 27.0°F 21.9°F 81% 30.06 in 3.0 miles Calm Calm - N/A   Haze
1:15 AM 26.6°F 21.2°F 80% 29.99 in 2.5 miles Calm Calm - N/A   Haze
1:29 AM 28.4°F 21.2°F 74% 29.99 in 3.0 miles Calm Calm - N/A   Haze
1:50 AM 28.4°F 21.2°F 74% 29.99 in 2.0 miles Calm Calm - 0.00 in Snow Light Snow
1:53 AM 28.0°F 21.9°F 78% 30.05 in 2.0 miles Calm Calm - 0.00 in Snow Light Snow
2:03 AM 26.6°F 21.2°F 80% 29.99 in 1.8 miles South 3.5 mph - 0.00 in Snow Light Snow
2:10 AM 28.4°F 23.0°F 80% 29.99 in 2.0 miles Calm Calm - 0.00 in Snow Light Snow
2:18 AM 28.4°F 23.0°F 80% 29.99 in 1.8 miles Calm Calm - 0.00 in Snow Light Snow
2:34 AM 28.4°F 21.2°F 74% 29.99 in 1.2 miles Calm Calm - 0.00 in Snow Light Snow
2:42 AM 28.4°F 21.2°F 74% 29.98 in 1.0 miles Calm Calm - 0.00 in Snow Light Snow
2:51 AM 26.6°F 21.2°F 80% 29.98 in 1.2 miles Calm Calm - 0.00 in Snow Light Snow
2:53 AM 28.0°F 21.9°F 78% 30.04 in 1.5 miles Calm Calm - 0.00 in Snow Light Snow
3:34 AM 28.4°F 21.2°F 74% 29.97 in 1.0 miles Calm Calm - 0.00 in Snow Light Snow
3:53 AM 28.0°F 23.0°F 81% 30.01 in 1.0 miles Calm Calm - 0.00 in Snow Light Snow
4:04 AM 28.4°F 23.0°F 80% 29.95 in 1.0 miles Calm Calm - 0.00 in Snow Light Snow
4:19 AM 28.4°F 21.2°F 74% 29.95 in 1.0 miles Calm Calm - 0.00 in Snow Light Snow
4:28 AM 28.4°F 23.0°F 80% 29.94 in 1.2 miles Calm Calm - 0.00 in Snow Light Snow
4:53 AM 28.0°F 23.0°F 81% 29.99 in 1.5 miles Calm Calm - 0.00 in Snow Light Snow
5:39 AM 28.4°F 23.0°F 80% 29.91 in 1.0 miles Calm Calm - 0.00 in Snow Light Snow
5:53 AM 28.0°F 23.0°F 81% 29.96 in 1.5 miles Calm Calm - 0.00 in Snow Light Snow
6:53 AM 28.0°F 21.9°F 78% 29.95 in 1.2 miles Calm Calm - 0.00 in Snow Light Snow
7:06 AM 28.4°F 23.0°F 80% 29.89 in 1.0 miles Calm Calm - 0.00 in Snow Light Snow
7:13 AM 28.4°F 23.0°F 80% 29.90 in 1.2 miles West 3.5 mph - 0.00 in Snow Light Snow
7:21 AM 28.4°F 21.2°F 74% 29.90 in 0.8 miles West 3.5 mph - 0.00 in Snow Light Snow
7:42 AM 28.4°F 23.0°F 80% 29.88 in 1.0 miles Calm Calm - 0.00 in Snow Light Snow
7:49 AM 28.4°F 23.0°F 80% 29.88 in 1.8 miles North - - 0.00 in Snow Light Snow
7:53 AM 28.0°F 23.0°F 81% 29.94 in 1.8 miles Calm Calm - 0.00 in Snow Light Snow
8:06 AM 28.4°F 23.0°F 80% 29.88 in 1.0 miles Calm Calm - 0.00 in Snow Light Snow
8:27 AM 28.4°F 24.8°F 86% 29.88 in 1.2 miles Calm Calm - 0.00 in Snow Light Snow
8:53 AM 28.9°F 24.1°F 82% 29.94 in 2.5 miles Calm Calm - 0.00 in Snow Light Snow
9:00 AM 28.4°F 24.8°F 86% 29.88 in 2.5 miles Calm Calm - 0.00 in   Haze
9:43 AM 28.4°F 23.0°F 80% 29.87 in 2.5 miles North - - 0.00 in   Overcast
9:53 AM 27.0°F 21.9°F 81% 29.93 in 2.0 miles SE 4.6 mph - 0.00 in   Haze
9:58 AM 28.4°F 21.2°F 74% 29.87 in 1.8 miles ESE 3.5 mph - N/A   Haze
10:53 AM 28.9°F 23.0°F 78% 29.92 in 2.0 miles ENE 4.6 mph - N/A   Haze
11:04 AM 28.4°F 23.0°F 80% 29.86 in 1.5 miles NE 4.6 mph - N/A   Haze
11:23 AM 28.4°F 23.0°F 80% 29.85 in 2.5 miles East 3.5 mph - N/A   Haze
11:34 AM 30.2°F 23.0°F 75% 29.85 in 3.0 miles Calm Calm - N/A   Haze
11:53 AM 30.0°F 21.9°F 72% 29.90 in 3.0 miles North - - N/A   Haze
12:53 PM 30.0°F 23.0°F 75% 29.88 in 3.0 miles SE 5.8 mph - N/A   Haze
1:53 PM 34.0°F 27.0°F 75% 29.87 in 6.0 miles North - - 0.01 in   Haze
2:53 PM 44.1°F 35.1°F 71% 29.88 in 10.0 miles West 11.5 mph - 0.11 in   Clear
3:53 PM 44.1°F 34.0°F 68% 29.88 in 10.0 miles WNW 24.2 mph 31.1 mph 0.10 in   Clear
4:53 PM 44.1°F 32.0°F 63% 29.91 in 10.0 miles WNW 17.3 mph 28.8 mph N/A   Clear
5:53 PM 43.0°F 30.9°F 62% 29.91 in 10.0 miles NW 17.3 mph - N/A   Clear
6:53 PM 44.1°F 30.0°F 58% 29.93 in 10.0 miles NW 21.9 mph 31.1 mph N/A   Clear
7:53 PM 42.1°F 30.9°F 65% 29.95 in 10.0 miles NW 19.6 mph 29.9 mph N/A   Clear
8:53 PM 42.1°F 30.9°F 65% 29.99 in 10.0 miles NW 11.5 mph 18.4 mph N/A   Clear
9:53 PM 42.1°F 30.0°F 62% 30.02 in 10.0 miles WNW 9.2 mph 18.4 mph N/A   Clear
10:53 PM 41.0°F 28.9°F 62% 30.03 in 10.0 miles WNW 28.8 mph 34.5 mph N/A   Clear
11:53 PM 42.1°F 28.9°F 60% 30.06 in 10.0 miles WNW 24.2 mph 34.5 mph N/A   Clear
Moon Phase
Jan. 07 Jan. 11 Jan. 18 Jan. 26 Feb. 03
Sunrise:07:47 AM (PST) Moon Rise:03:12 AM (PST)1/7
Sunset:04:30 PM (PST) Moon Set:12:48 PM (PST)1/7

Copyright © 2014 The Weather Underground, Inc.